QPF
0.13 0.18 0.20 0.24 0.29 0.37 0.39 0.33 0.32 0.30 0.30 0.33 0.29 0.27 0.19 0.11 0.07 0.04 0.03 0.03 0.03 0.02 0.02 0.02 0.02 0.02 0.02 0.02 0.03 0.03 0.04 0.05 0.06 0.06 0.05 0.04 0.02 0.01 0.01 0.00 0.00 0.00 0.00
0.11 0.16 0.19 0.20 0.24 0.28 0.32 0.32 0.29 0.28 0.26 0.27 0.26 0.26 0.25 0.18 0.10 0.05 0.04 0.03 0.03 0.02 0.03 0.03 0.02 0.02 0.03 0.03 0.04 0.06 0.08 0.08 0.08 0.08 0.06 0.04 0.02 0.01 0.01 0.00 0.00 0.00 0.00
0.10 0.11 0.15 0.19 0.21 0.23 0.23 0.25 0.28 0.29 0.27 0.25 0.24 0.21 0.23 0.22 0.16 0.09 0.05 0.04 0.04 0.04 0.04 0.04 0.05 0.05 0.05 0.06 0.07 0.10 0.10 0.10 0.10 0.09 0.09 0.06 0.04 0.02 0.01 0.00 0.00 0.00 0.00
0.09 0.10 0.15 0.20 0.19 0.19 0.21 0.20 0.23 0.26 0.24 0.24 0.24 0.22 0.18 0.17 0.13 0.10 0.07 0.07 0.07 0.06 0.06 0.06 0.07 0.07 0.07 0.07 0.09 0.13 0.14 0.14 0.14 0.12 0.11 0.08 0.06 0.05 0.03 0.01 0.01 0.00 0.00
0.08 0.11 0.13 0.13 0.13 0.13 0.14 0.16 0.20 0.21 0.19 0.18 0.21 0.23 0.20 0.15 0.14 0.12 0.09 0.08 0.08 0.07 0.09 0.08 0.07 0.08 0.08 0.07 0.08 0.11 0.15 0.16 0.16 0.14 0.12 0.10 0.09 0.08 0.05 0.03 0.02 0.01 0.00
0.07 0.08 0.08 0.08 0.10 0.10 0.09 0.11 0.12 0.15 0.18 0.16 0.17 0.21 0.22 0.18 0.16 0.16 0.13 0.11 0.09 0.07 0.07 0.08 0.07 0.08 0.08 0.09 0.10 0.12 0.14 0.14 0.15 0.14 0.12 0.10 0.09 0.08 0.06 0.04 0.03 0.02 0.01
0.04 0.04 0.05 0.06 0.07 0.06 0.05 0.06 0.08 0.08 0.12 0.14 0.13 0.15 0.20 0.21 0.17 0.16 0.16 0.13 0.12 0.12 0.11 0.11 0.10 0.09 0.08 0.08 0.10 0.13 0.13 0.12 0.11 0.11 0.11 0.10 0.09 0.07 0.07 0.07 0.05 0.04 0.03
0.02 0.03 0.03 0.04 0.04 0.04 0.04 0.04 0.05 0.05 0.06 0.07 0.08 0.08 0.12 0.17 0.17 0.15 0.15 0.13 0.12 0.12 0.12 0.12 0.13 0.13 0.12 0.11 0.11 0.13 0.13 0.12 0.12 0.11 0.10 0.10 0.09 0.08 0.08 0.07 0.06 0.05 0.04
0.02 0.02 0.03 0.03 0.03 0.03 0.03 0.03 0.03 0.04 0.04 0.04 0.05 0.06 0.08 0.11 0.13 0.12 0.13 0.12 0.12 0.11 0.10 0.10 0.11 0.11 0.11 0.12 0.12 0.12 0.11 0.11 0.11 0.11 0.10 0.09 0.09 0.08 0.08 0.07 0.06 0.05 0.04
0.02 0.02 0.03 0.02 0.02 0.01 0.01 0.02 0.02 0.02 0.04 0.05 0.05 0.05 0.07 0.08 0.10 0.11 0.10 0.10 0.09 0.10 0.09 0.08 0.07 0.08 0.09 0.11 0.12 0.12 0.11 0.12 0.12 0.12 0.11 0.10 0.09 0.07 0.06 0.06 0.05 0.04 0.03
0.02 0.02 0.03 0.02 0.01 0.01 0.01 0.01 0.01 0.01 0.03 0.04 0.05 0.05 0.07 0.08 0.09 0.08 0.08 0.09 0.09 0.09 0.09 0.09 0.09 0.08 0.09 0.10 0.12 0.13 0.13 0.13 0.13 0.12 0.11 0.10 0.09 0.07 0.05 0.05 0.04 0.04 0.04
0.03 0.03 0.02 0.02 0.02 0.01 0.02 0.01 0.01 0.01 0.02 0.03 0.03 0.03 0.06 0.08 0.08 0.09 0.09 0.09 0.09 0.09 0.08 0.08 0.08 0.08 0.09 0.09 0.11 0.12 0.12 0.12 0.11 0.10 0.10 0.10 0.10 0.08 0.05 0.04 0.04 0.04 0.04
0.04 0.03 0.04 0.04 0.03 0.03 0.03 0.01 0.02 0.01 0.02 0.03 0.03 0.03 0.03 0.05 0.06 0.08 0.09 0.09 0.10 0.09 0.09 0.09 0.08 0.08 0.08 0.09 0.10 0.11 0.11 0.11 0.11 0.10 0.09 0.09 0.08 0.07 0.05 0.04 0.03 0.03 0.03
0.04 0.04 0.07 0.07 0.05 0.04 0.02 0.01 0.01 0.01 0.01 0.02 0.02 0.03 0.03 0.03 0.04 0.06 0.07 0.07 0.07 0.07 0.07 0.09 0.11 0.10 0.10 0.11 0.12 0.12 0.12 0.12 0.11 0.10 0.08 0.07 0.05 0.05 0.04 0.04 0.03 0.03 0.03
0.03 0.03 0.04 0.05 0.05 0.03 0.02 0.01 0.01 0.01 0.01 0.01 0.02 0.02 0.02 0.03 0.03 0.05 0.07 0.06 0.05 0.06 0.08 0.09 0.10 0.12 0.13 0.13 0.12 0.12 0.11 0.11 0.11 0.11 0.10 0.07 0.06 0.05 0.04 0.03 0.03 0.02 0.02
0.02 0.02 0.02 0.03 0.03 0.02 0.01 0.01 0.01 0.01 0.01 0.01 0.02 0.02 0.03 0.02 0.02 0.03 0.05 0.05 0.04 0.05 0.07 0.09 0.10 0.11 0.13 0.16 0.15 0.14 0.13 0.12 0.11 0.10 0.09 0.08 0.07 0.06 0.04 0.03 0.02 0.02 0.02
0.02 0.01 0.01 0.02 0.02 0.02 0.02 0.02 0.01 0.01 0.01 0.01 0.01 0.02 0.03 0.03 0.02 0.01 0.02 0.03 0.04 0.05 0.06 0.08 0.11 0.12 0.14 0.16 0.16 0.15 0.12 0.11 0.09 0.08 0.07 0.07 0.06 0.04 0.03 0.03 0.02 0.02 0.01
0.01 0.01 0.00 0.01 0.01 0.01 0.01 0.01 0.01 0.01 0.02 0.01 0.01 0.01 0.02 0.02 0.03 0.02 0.02 0.03 0.03 0.03 0.04 0.04 0.06 0.08 0.10 0.13 0.14 0.13 0.09 0.07 0.06 0.05 0.04 0.04 0.03 0.02 0.02 0.02 0.01 0.01 0.00
0.00 0.00 0.00 0.01 0.00 0.00 0.01 0.01 0.01 0.01 0.01 0.02 0.01 0.01 0.01 0.01 0.02 0.01 0.02 0.03 0.03 0.03 0.03 0.04 0.05 0.06 0.07 0.08 0.09 0.10 0.07 0.05 0.04 0.04 0.04 0.03 0.03 0.02 0.02 0.01 0.01 0.00 0.00
0.00 0.00 0.00 0.01 0.01 0.01 0.01 0.01 0.01 0.01 0.01 0.01 0.01 0.02 0.02 0.01 0.01 0.01 0.01 0.02 0.03 0.03 0.03 0.04 0.04 0.05 0.05 0.06 0.06 0.06 0.05 0.04 0.03 0.03 0.03 0.03 0.02 0.02 0.01 0.01 0.00 0.00 0.00
0.00 0.00 0.00 0.01 0.01 0.01 0.01 0.02 0.01 0.01 0.01 0.01 0.01 0.01 0.02 0.02 0.02 0.01 0.01 0.02 0.02 0.03 0.03 0.05 0.05 0.05 0.06 0.06 0.06 0.06 0.04 0.03 0.04 0.03 0.02 0.02 0.02 0.01 0.01 0.00 0.00 0.00 0.00
0.00 0.00 0.00 0.00 0.01 0.01 0.02 0.02 0.01 0.01 0.01 0.02 0.02 0.02 0.02 0.02 0.02 0.02 0.02 0.02 0.03 0.04 0.04 0.05 0.06 0.06 0.07 0.07 0.07 0.07 0.05 0.05 0.04 0.03 0.02 0.02 0.02 0.01 0.01 0.00 0.00 0.00 0.00
0.00 0.00 0.00 0.00 0.01 0.01 0.01 0.01 0.01 0.01 0.01 0.02 0.02 0.02 0.02 0.02 0.02 0.02 0.02 0.02 0.02 0.04 0.05 0.06 0.07 0.08 0.08 0.09 0.10 0.09 0.08 0.07 0.05 0.04 0.03 0.03 0.02 0.01 0.01 0.00 0.00 0.00 0.00
0.00 0.00 0.00 0.00 0.00 0.01 0.01 0.01 0.01 0.01 0.01 0.01 0.01 0.02 0.02 0.03 0.04 0.03 0.03 0.04 0.03 0.04 0.04 0.05 0.07 0.07 0.07 0.08 0.10 0.09 0.09 0.07 0.06 0.05 0.04 0.04 0.03 0.02 0.01 0.01 0.00 0.00 0.00
0.00 0.00 0.00 0.00 0.00 0.00 0.00 0.01 0.01 0.01 0.01 0.01 0.01 0.02 0.03 0.04 0.05 0.05 0.05 0.06 0.06 0.07 0.07 0.06 0.06 0.06 0.06 0.07 0.10 0.10 0.08 0.07 0.07 0.06 0.05 0.04 0.03 0.02 0.01 0.01 0.00 0.00 0.00
0.00 0.00 0.00 0.00 0.00 0.00 0.00 0.01 0.01 0.01 0.01 0.02 0.02 0.02 0.03 0.03 0.04 0.04 0.05 0.06 0.06 0.06 0.07 0.08 0.07 0.07 0.07 0.08 0.09 0.09 0.09 0.08 0.08 0.07 0.06 0.04 0.03 0.03 0.02 0.01 0.01 0.00 0.00
MSLP
1005.99 1005.94 1006.06 1006.36 1006.81 1007.38 1007.98 1008.55 1009.01 1009.33 1009.52 1009.60 1009.62 1009.65 1009.74 1009.94 1010.25 1010.67 1011.16 1011.69 1012.21 1012.70 1013.17 1013.61 1014.05 1014.51 1015.01 1015.55 1016.11 1016.69 1017.23 1017.73 1018.14 1018.46 1018.70 1018.87 1019.00 1019.10 1019.21 1019.32 1019.45 1019.60 1019.76
1005.98 1005.93 1006.02 1006.26 1006.64 1007.14 1007.69 1008.22 1008.69 1009.04 1009.28 1009.42 1009.50 1009.57 1009.67 1009.86 1010.13 1010.50 1010.93 1011.40 1011.88 1012.36 1012.83 1013.28 1013.74 1014.22 1014.74 1015.29 1015.87 1016.45 1017.02 1017.54 1018.00 1018.39 1018.70 1018.95 1019.15 1019.32 1019.47 1019.62 1019.78 1019.93 1020.09
1006.18 1006.09 1006.11 1006.26 1006.54 1006.92 1007.38 1007.86 1008.30 1008.67 1008.95 1009.15 1009.29 1009.41 1009.55 1009.73 1009.99 1010.32 1010.71 1011.15 1011.61 1012.08 1012.55 1013.01 1013.49 1013.98 1014.49 1015.03 1015.60 1016.17 1016.73 1017.27 1017.76 1018.20 1018.58 1018.91 1019.19 1019.44 1019.66 1019.86 1020.06 1020.24 1020.42
1006.57 1006.43 1006.35 1006.37 1006.50 1006.75 1007.08 1007.46 1007.85 1008.21 1008.52 1008.76 1008.96 1009.13 1009.31 1009.52 1009.78 1010.09 1010.47 1010.90 1011.35 1011.82 1012.30 1012.78 1013.26 1013.75 1014.25 1014.76 1015.29 1015.83 1016.37 1016.90 1017.41 1017.88 1018.32 1018.72 1019.09 1019.41 1019.71 1019.98 1020.23 1020.45 1020.66
1007.13 1006.91 1006.71 1006.59 1006.55 1006.63 1006.81 1007.07 1007.37 1007.68 1007.98 1008.25 1008.49 1008.71 1008.93 1009.17 1009.45 1009.79 1010.17 1010.61 1011.08 1011.57 1012.06 1012.55 1013.03 1013.51 1013.98 1014.46 1014.94 1015.43 1015.93 1016.44 1016.94 1017.44 1017.92 1018.39 1018.82 1019.23 1019.60 1019.94 1020.25 1020.54 1020.80
1007.80 1007.49 1007.18 1006.89 1006.69 1006.59 1006.60 1006.70 1006.89 1007.12 1007.38 1007.64 1007.89 1008.13 1008.38 1008.66 1008.98 1009.34 1009.76 1010.23 1010.73 1011.25 1011.77 1012.28 1012.77 1013.23 1013.67 1014.10 1014.53 1014.97 1015.42 1015.90 1016.39 1016.90 1017.41 1017.92 1018.42 1018.89 1019.34 1019.75 1020.13 1020.48 1020.81
1008.51 1008.13 1007.70 1007.29 1006.92 1006.65 1006.48 1006.43 1006.47 1006.59 1006.76 1006.96 1007.18 1007.42 1007.68 1007.99 1008.33 1008.74 1009.21 1009.72 1010.27 1010.84 1011.40 1011.93 1012.42 1012.87 1013.29 1013.68 1014.06 1014.45 1014.86 1015.31 1015.79 1016.31 1016.84 1017.39 1017.94 1018.47 1018.97 1019.45 1019.90 1020.32 1020.72
1009.21 1008.78 1008.27 1007.75 1007.26 1006.83 1006.50 1006.28 1006.16 1006.13 1006.18 1006.28 1006.43 1006.62 1006.86 1007.16 1007.53 1007.98 1008.49 1009.07 1009.67 1010.30 1010.90 1011.47 1011.98 1012.44 1012.84 1013.21 1013.55 1013.91 1014.29 1014.72 1015.20 1015.72 1016.28 1016.86 1017.45 1018.02 1018.58 1019.11 1019.61 1020.10 1020.57
1009.86 1009.40 1008.86 1008.28 1007.70 1007.15 1006.68 1006.30 1006.01 1005.82 1005.70 1005.67 1005.70 1005.80 1005.98 1006.25 1006.62 1007.09 1007.64 1008.27 1008.94 1009.63 1010.29 1010.91 1011.45 1011.93 1012.34 1012.70 1013.04 1013.39 1013.76 1014.19 1014.68 1015.22 1015.80 1016.41 1017.03 1017.64 1018.23 1018.80 1019.35 1019.88 1020.41
1010.43 1009.99 1009.45 1008.86 1008.24 1007.62 1007.04 1006.52 1006.07 1005.70 1005.41 1005.19 1005.07 1005.04 1005.12 1005.33 1005.67 1006.13 1006.72 1007.39 1008.12 1008.87 1009.60 1010.27 1010.86 1011.38 1011.81 1012.20 1012.56 1012.92 1013.32 1013.78 1014.29 1014.86 1015.47 1016.11 1016.75 1017.39 1018.00 1018.59 1019.16 1019.72 1020.28
1010.91 1010.52 1010.04 1009.48 1008.87 1008.23 1007.58 1006.95 1006.36 1005.81 1005.33 1004.93 1004.62 1004.43 1004.39 1004.50 1004.78 1005.22 1005.81 1006.51 1007.29 1008.10 1008.89 1009.62 1010.27 1010.84 1011.33 1011.76 1012.16 1012.57 1013.01 1013.51 1014.07 1014.68 1015.33 1016.00 1016.66 1017.31 1017.92 1018.51 1019.08 1019.64 1020.21
1011.32 1011.02 1010.62 1010.13 1009.56 1008.92 1008.25 1007.55 1006.83 1006.14 1005.48 1004.90 1004.41 1004.05 1003.86 1003.85 1004.05 1004.45 1005.02 1005.74 1006.55 1007.40 1008.25 1009.04 1009.75 1010.38 1010.93 1011.42 1011.89 1012.36 1012.86 1013.42 1014.03 1014.69 1015.38 1016.07 1016.75 1017.40 1018.00 1018.58 1019.12 1019.66 1020.21
1011.68 1011.47 1011.16 1010.75 1010.25 1009.66 1008.99 1008.25 1007.46 1006.65 1005.85 1005.10 1004.44 1003.93 1003.59 1003.47 1003.58 1003.92 1004.46 1005.17 1005.99 1006.87 1007.76 1008.60 1009.37 1010.06 1010.67 1011.22 1011.76 1012.30 1012.87 1013.49 1014.16 1014.87 1015.59 1016.30 1016.99 1017.63 1018.21 1018.75 1019.26 1019.75 1020.26
1011.98 1011.85 1011.63 1011.32 1010.89 1010.35 1009.71 1008.97 1008.14 1007.26 1006.36 1005.49 1004.71 1004.07 1003.61 1003.39 1003.42 1003.69 1004.19 1004.87 1005.69 1006.58 1007.48 1008.35 1009.16 1009.89 1010.55 1011.17 1011.77 1012.37 1013.01 1013.69 1014.41 1015.15 1015.90 1016.63 1017.31 1017.94 1018.49 1018.99 1019.45 1019.88 1020.33
1012.23 1012.16 1012.01 1011.77 1011.41 1010.93 1010.33 1009.61 1008.79 1007.88 1006.94 1006.02 1005.16 1004.44 1003.91 1003.60 1003.56 1003.78 1004.23 1004.87 1005.66 1006.53 1007.43 1008.31 1009.13 1009.89 1010.59 1011.24 1011.89 1012.54 1013.22 1013.95 1014.71 1015.48 1016.25 1016.98 1017.66 1018.26 1018.78 1019.24 1019.64 1020.02 1020.39
1012.43 1012.39 1012.27 1012.06 1011.75 1011.33 1010.78 1010.11 1009.32 1008.44 1007.51 1006.59 1005.72 1004.97 1004.40 1004.07 1003.98 1004.14 1004.55 1005.14 1005.89 1006.72 1007.59 1008.44 1009.25 1010.01 1010.72 1011.40 1012.07 1012.75 1013.47 1014.22 1015.00 1015.79 1016.56 1017.29 1017.96 1018.54 1019.03 1019.45 1019.81 1020.13 1020.45
1012.58 1012.51 1012.39 1012.18 1011.89 1011.51 1011.01 1010.40 1009.67 1008.86 1007.99 1007.12 1006.30 1005.58 1005.03 1004.69 1004.58 1004.72 1005.08 1005.62 1006.31 1007.09 1007.90 1008.71 1009.48 1010.22 1010.91 1011.59 1012.26 1012.95 1013.68 1014.44 1015.23 1016.02 1016.79 1017.52 1018.17 1018.74 1019.22 1019.61 1019.94 1020.22 1020.50
1012.68 1012.55 1012.38 1012.14 1011.85 1011.48 1011.02 1010.48 1009.84 1009.12 1008.35 1007.57 1006.84 1006.19 1005.69 1005.38 1005.28 1005.40 1005.72 1006.22 1006.84 1007.55 1008.29 1009.04 1009.76 1010.45 1011.11 1011.76 1012.42 1013.11 1013.83 1014.58 1015.36 1016.15 1016.92 1017.64 1018.29 1018.85 1019.32 1019.71 1020.02 1020.30 1020.55
1012.75 1012.54 1012.28 1012.00 1011.67 1011.31 1010.89 1010.40 1009.84 1009.23 1008.58 1007.91 1007.29 1006.74 1006.31 1006.05 1005.98 1006.09 1006.39 1006.83 1007.39 1008.02 1008.69 1009.36 1010.02 1010.66 1011.28 1011.90 1012.53 1013.20 1013.91 1014.65 1015.42 1016.20 1016.96 1017.67 1018.32 1018.89 1019.36 1019.76 1020.09 1020.37 1020.62
1012.82 1012.51 1012.17 1011.82 1011.46 1011.09 1010.69 1010.25 1009.77 1009.26 1008.71 1008.16 1007.64 1007.19 1006.85 1006.64 1006.59 1006.71 1006.98 1007.38 1007.87 1008.44 1009.03 1009.64 1010.24 1010.82 1011.40 1011.99 1012.60 1013.25 1013.94 1014.67 1015.42 1016.19 1016.94 1017.65 1018.31 1018.88 1019.38 1019.80 1020.15 1020.45 1020.73
1012.90 1012.51 1012.10 1011.70 1011.30 1010.92 1010.53 1010.13 1009.71 1009.27 1008.81 1008.35 1007.92 1007.55 1007.27 1007.11 1007.09 1007.20 1007.45 1007.81 1008.26 1008.76 1009.30 1009.85 1010.40 1010.94 1011.49 1012.06 1012.65 1013.28 1013.95 1014.67 1015.42 1016.17 1016.91 1017.62 1018.28 1018.87 1019.38 1019.83 1020.21 1020.55 1020.86
1013.03 1012.58 1012.13 1011.69 1011.28 1010.89 1010.51 1010.13 1009.74 1009.34 1008.93 1008.53 1008.15 1007.83 1007.59 1007.46 1007.44 1007.55 1007.78 1008.11 1008.52 1008.98 1009.47 1009.99 1010.51 1011.03 1011.56 1012.12 1012.70 1013.33 1013.99 1014.70 1015.43 1016.17 1016.90 1017.60 1018.26 1018.86 1019.39 1019.86 1020.27 1020.65 1020.99
1013.20 1012.74 1012.29 1011.85 1011.43 1011.04 1010.66 1010.28 1009.90 1009.51 1009.11 1008.72 1008.36 1008.06 1007.83 1007.69 1007.67 1007.77 1007.98 1008.28 1008.66 1009.10 1009.57 1010.07 1010.58 1011.10 1011.63 1012.19 1012.78 1013.41 1014.07 1014.77 1015.49 1016.21 1016.92 1017.61 1018.25 1018.85 1019.38 1019.87 1020.30 1020.70 1021.07
1013.42 1013.00 1012.57 1012.16 1011.76 1011.38 1010.99 1010.61 1010.21 1009.79 1009.37 1008.96 1008.58 1008.25 1008.00 1007.85 1007.81 1007.88 1008.07 1008.35 1008.72 1009.14 1009.61 1010.11 1010.62 1011.15 1011.70 1012.28 1012.88 1013.51 1014.18 1014.87 1015.57 1016.27 1016.96 1017.62 1018.24 1018.81 1019.34 1019.82 1020.26 1020.67 1021.05
1013.68 1013.32 1012.96 1012.59 1012.23 1011.86 1011.47 1011.06 1010.62 1010.16 1009.69 1009.23 1008.80 1008.43 1008.14 1007.95 1007.88 1007.93 1008.09 1008.36 1008.71 1009.13 1009.59 1010.10 1010.63 1011.18 1011.75 1012.35 1012.96 1013.60 1014.27 1014.95 1015.63 1016.31 1016.96 1017.59 1018.17 1018.71 1019.21 1019.67 1020.10 1020.51 1020.90
1013.95 1013.67 1013.39 1013.08 1012.76 1012.41 1012.01 1011.58 1011.10 1010.58 1010.05 1009.53 1009.03 1008.60 1008.26 1008.03 1007.92 1007.94 1008.07 1008.32 1008.66 1009.07 1009.53 1010.04 1010.59 1011.15 1011.74 1012.35 1012.98 1013.63 1014.29 1014.96 1015.62 1016.26 1016.88 1017.46 1018.00 1018.51 1018.97 1019.40 1019.81 1020.20 1020.59
Thickness
5607 5611 5616 5620 5624 5629 5634 5639 5642 5645 5649 5652 5654 5654 5655 5658 5660 5662 5663 5664 5665 5665 5665 5665 5664 5664 5662 5661 5660 5658 5656 5654 5653 5649 5646 5647 5648 5646 5645 5643 5641 5639 5636
5602 5605 5611 5614 5618 5623 5627 5632 5634 5638 5643 5646 5648 5649 5650 5653 5655 5655 5657 5658 5659 5660 5660 5659 5658 5658 5657 5655 5654 5652 5649 5648 5647 5642 5637 5634 5635 5637 5638 5635 5633 5631 5628
5599 5602 5606 5609 5612 5616 5620 5625 5628 5632 5635 5638 5641 5643 5644 5646 5646 5647 5648 5651 5653 5653 5654 5653 5652 5652 5650 5648 5648 5647 5644 5641 5640 5639 5634 5629 5627 5626 5627 5626 5624 5622 5619
5596 5600 5603 5604 5607 5611 5615 5619 5622 5626 5629 5632 5634 5636 5637 5638 5640 5641 5642 5644 5645 5646 5646 5646 5645 5644 5643 5642 5642 5641 5639 5636 5633 5631 5631 5629 5627 5620 5615 5615 5614 5613 5610
5594 5596 5599 5601 5605 5608 5611 5614 5616 5619 5623 5626 5628 5630 5632 5634 5636 5635 5634 5635 5637 5638 5638 5638 5637 5636 5635 5635 5634 5633 5632 5630 5628 5626 5624 5621 5618 5616 5610 5606 5603 5601 5600
5589 5591 5594 5598 5600 5604 5606 5608 5610 5613 5617 5620 5622 5624 5625 5626 5627 5627 5626 5627 5627 5628 5629 5629 5628 5628 5627 5626 5625 5624 5623 5622 5620 5618 5617 5614 5610 5607 5604 5601 5596 5592 5590
5582 5586 5589 5591 5594 5597 5599 5601 5605 5608 5611 5613 5615 5617 5618 5619 5620 5621 5620 5619 5619 5619 5619 5619 5619 5619 5618 5617 5616 5614 5613 5612 5611 5609 5608 5606 5604 5602 5598 5594 5590 5586 5581
5577 5580 5583 5586 5588 5591 5593 5595 5598 5601 5604 5606 5609 5611 5611 5612 5612 5613 5612 5611 5611 5611 5611 5611 5610 5610 5609 5608 5606 5605 5603 5602 5601 5601 5599 5597 5595 5593 5591 5587 5582 5577 5572
5572 5575 5577 5580 5581 5583 5585 5588 5590 5593 5596 5599 5601 5602 5603 5604 5604 5604 5603 5603 5604 5603 5603 5602 5601 5601 5600 5599 5597 5594 5593 5592 5591 5591 5590 5587 5585 5582 5581 5578 5575 5570 5565
5566 5569 5571 5572 5574 5576 5577 5580 5582 5584 5587 5590 5591 5592 5593 5594 5595 5595 5594 5595 5595 5594 5593 5592 5591 5591 5589 5588 5585 5584 5583 5581 5581 5581 5580 5578 5574 5572 5570 5567 5564 5561 5558
5559 5562 5564 5565 5566 5567 5568 5570 5572 5574 5576 5578 5579 5581 5582 5583 5584 5583 5583 5583 5583 5583 5582 5580 5579 5578 5577 5576 5574 5573 5573 5571 5570 5570 5569 5566 5564 5561 5558 5555 5552 5549 5546
5554 5555 5556 5556 5557 5557 5558 5559 5560 5562 5564 5566 5568 5569 5570 5571 5571 5572 5572 5572 5571 5571 5570 5568 5567 5565 5564 5563 5562 5562 5562 5561 5560 5559 5557 5555 5552 5550 5547 5544 5541 5538 5536
5547 5547 5547 5547 5547 5547 5547 5547 5548 5550 5552 5553 5555 5557 5558 5559 5559 5559 5560 5559 5559 5558 5557 5555 5554 5553 5552 5551 5551 5551 5551 5550 5549 5548 5546 5544 5540 5537 5534 5532 5529 5526 5524
5540 5539 5538 5537 5536 5536 5536 5536 5536 5539 5540 5542 5544 5544 5545 5546 5546 5546 5546 5546 5545 5544 5543 5543 5542 5541 5541 5540 5539 5539 5539 5537 5536 5535 5534 5531 5528 5526 5522 5519 5517 5514 5511
5534 5532 5530 5528 5527 5526 5524 5524 5525 5527 5530 5531 5532 5532 5532 5533 5533 5532 5532 5532 5531 5531 5530 5530 5529 5529 5528 5529 5528 5527 5527 5525 5523 5521 5519 5517 5516 5514 5511 5508 5505 5503 5500
5527 5524 5522 5520 5517 5515 5515 5515 5516 5517 5519 5520 5520 5521 5521 5520 5520 5520 5519 5519 5518 5517 5516 5516 5516 5516 5516 5516 5516 5514 5512 5511 5509 5506 5504 5503 5501 5501 5499 5496 5495 5493 5490
5520 5517 5514 5511 5509 5507 5506 5506 5507 5508 5509 5509 5509 5509 5509 5509 5509 5508 5508 5507 5506 5504 5503 5503 5503 5503 5503 5504 5503 5501 5499 5498 5496 5493 5492 5491 5489 5487 5485 5484 5483 5481 5480
5514 5510 5507 5504 5501 5500 5499 5499 5499 5500 5500 5499 5499 5499 5498 5498 5497 5496 5496 5495 5493 5492 5491 5490 5490 5490 5490 5490 5490 5488 5487 5485 5484 5483 5482 5480 5477 5476 5474 5472 5469 5468 5467
5509 5505 5502 5498 5495 5492 5491 5491 5491 5491 5490 5490 5488 5487 5486 5486 5486 5485 5483 5482 5481 5479 5478 5478 5477 5477 5477 5478 5478 5477 5475 5473 5472 5471 5469 5468 5467 5466 5465 5462 5458 5456 5455
5504 5500 5497 5494 5490 5487 5485 5484 5483 5481 5480 5479 5478 5478 5477 5476 5474 5473 5472 5470 5469 5467 5466 5465 5465 5465 5465 5466 5466 5466 5464 5462 5461 5460 5459 5458 5457 5456 5455 5452 5449 5446 5444
5501 5497 5493 5488 5485 5482 5480 5477 5475 5473 5471 5470 5470 5469 5468 5466 5465 5463 5461 5459 5458 5456 5454 5453 5454 5454 5454 5455 5455 5456 5455 5453 5451 5450 5449 5448 5449 5447 5445 5443 5440 5438 5436
5497 5493 5488 5483 5479 5476 5473 5470 5467 5465 5463 5462 5461 5460 5459 5457 5456 5454 5452 5449 5446 5445 5444 5443 5443 5443 5443 5444 5444 5445 5445 5444 5442 5441 5440 5439 5439 5438 5436 5434 5432 5430 5427
5491 5487 5481 5477 5473 5470 5466 5463 5460 5458 5456 5454 5453 5452 5450 5449 5447 5445 5442 5440 5437 5435 5435 5434 5433 5433 5433 5433 5434 5435 5436 5436 5434 5432 5432 5431 5430 5428 5426 5425 5423 5421 5417
5485 5480 5475 5470 5467 5463 5460 5456 5453 5450 5448 5445 5444 5442 5441 5439 5438 5435 5433 5431 5428 5427 5425 5424 5424 5423 5423 5424 5424 5425 5426 5426 5425 5423 5422 5421 5419 5417 5416 5414 5412 5410 5408
5479 5474 5469 5465 5461 5457 5453 5449 5445 5442 5439 5437 5435 5434 5432 5430 5428 5426 5423 5422 5420 5418 5417 5416 5416 5415 5416 5417 5417 5417 5417 5416 5415 5413 5411 5409 5408 5406 5404 5403 5402 5400 5399
5473 5468 5463 5458 5454 5449 5445 5441 5437 5433 5430 5428 5426 5423 5421 5420 5418 5416 5414 5412 5411 5410 5409 5409 5408 5409 5409 5409 5410 5409 5409 5408 5408 5405 5403 5401 5400 5399 5397 5395 5393 5391 5390